Location: Dehesa de la Cepeda
(40.6574°N, 4.3013°W)
Time: 18:08:59
(UTC+00:00)

Tianhe-1 - Visible Passes

Search period start: 23 June 2021 00:00
Search period end: 03 July 2021 00:00
Orbit: 375 x 385 km, 41.5° (Epoch: 22 June)

Date Brightness Start Highest point End Pass type
(mag) Time Alt. Az. Time Alt. Az. Time Alt. Az.
23 Jun 1.1 02:58:43 46° SW 02:59:24 62° SSE 03:02:31 10° E visible
24 Jun 3.3 02:00:13 18° E 02:00:13 18° E 02:01:17 10° E visible
24 Jun 1.1 03:32:18 14° W 03:34:58 79° N 03:38:07 10° E visible
25 Jun 0.9 02:33:41 84° SSE 02:33:41 84° SSE 02:36:49 10° E visible
25 Jun 1.2 04:07:19 10° W 04:10:27 77° N 04:13:37 10° E visible
26 Jun 3.9 01:35:00 13° E 01:35:00 13° E 01:35:24 10° E visible
26 Jun 1.2 03:07:06 21° W 03:09:01 73° N 03:12:09 10° E visible
27 Jun 2.0 02:08:22 43° ENE 02:08:22 43° ENE 02:10:37 10° E visible
27 Jun 1.0 03:41:06 10° W 03:44:15 90° ESE 03:47:23 10° E visible
28 Jun 1.1 02:41:45 45° WNW 02:42:34 76° N 02:45:43 10° E visible
28 Jun 1.4 04:16:12 10° W 04:19:13 45° SSW 04:22:14 10° SE visible
29 Jun 3.6 01:43:10 16° E 01:43:10 16° E 01:43:55 10° E visible
29 Jun 0.9 03:15:16 17° W 03:17:30 70° SSW 03:20:37 10° ESE visible
30 Jun 2.4 02:16:57 32° E 02:16:57 32° E 02:18:46 10° E visible
30 Jun 1.9 03:49:22 10° W 03:52:09 30° SSW 03:54:56 10° SE visible
01 Jul 2.0 02:51:15 33° SSE 02:51:15 33° SSE 02:53:16 10° SE visible
02 Jul 3.2 03:26:16 13° S 03:26:16 13° S 03:26:52 10° SSE visible
02 Jul 2.3 21:29:53 10° SW 21:31:46 26° S 21:31:46 26° S visible
